Weather Roundup
Issued by NWS Springfield, MO

Home | Current Version | Previous Version | Text Only | Print | Product List | Glossary On
Versions: 1 2 3 4 5 6 7 8 9 10 11 12 13 14 15 16 17 18 19 20 21 22 23 24 25 26 27 28 29 30 31 32 33 34 35 36 37 38 39 40 41 42 43 44 45 46 47 48 49 50
000
NZUS99 KSGF 032257
HRRSGF

HOURLY WEATHER
NATIONAL WEATHER SERVICE SPRINGFIELD MO
600 PM CDT THU SEP 03 2015

......SGF CWA......

CITY           SKY/WX    TMP DP  RH WIND       PRES   REMARKS
SPRINGFIELD    SUNNY     87  66  49 SW9       29.94F
JOPLIN         SUNNY     87  68  52 S8        29.93S HX  90
WEST PLAINS    MOSUNNY   86  65  49 SW5       29.98S
ROLLA          SUNNY     87  66  49 S7        29.94S

......SURROUNDING SGF CWA......

CITY           SKY/WX    TMP DP  RH WIND       PRES   REMARKS
CHANUTE        SUNNY     86  69  56 S14       29.90F HX  90
PARSONS        SUNNY     86  69  56 S7        29.90F HX  90
COFFEYVILLE    SUNNY     86  69  56 S13       29.88F HX  90
EMPORIA        SUNNY     89  65  44 S15       29.86S HX  91
HARRISON AR    MOSUNNY   86  68  54 S7        29.96F

......KANSAS AND MISSOURI......

CITY           SKY/WX    TMP DP  RH WIND       PRES   REMARKS
KANSAS CTY INT MOSUNNY   89  67  47 S13       29.88F HX  92
SEDALIA        SUNNY     91  65  41 SW7       29.92F HX  93
ST JOSEPH      SUNNY     88  70  55 S13       29.85F HX  93
ST LOUIS       MOSUNNY   92  65  40 S7        29.92F HX  94
WICHITA        PTSUNNY   91  62  37 S16G28    29.84S HX  91
TOPEKA         SUNNY     91  65  41 S14       29.85S HX  93
OLATHE         SUNNY     85  68  56 S14       29.89S

......TENNESSEE......

CITY           SKY/WX    TMP DP  RH WIND       PRES   REMARKS
MEMPHIS        NOT AVBL
NASHVILLE      PTSUNNY   91  61  36 E7        29.93F HX  91

......ARKANSAS.......

CITY           SKY/WX    TMP DP  RH WIND       PRES   REMARKS
FAYETTEVILLE   SUNNY     85  68  56 S7        29.95F
FT SMITH       PTSUNNY   93  64  38 E7        29.88F HX  94
LITTLE ROCK    MOSUNNY   93  66  40 SE8       29.90F HX  96

......OKLAHOMA.......

CITY           SKY/WX    TMP DP  RH WIND       PRES   REMARKS
TULSA          PTSUNNY   91  67  44 S14       29.87F HX  94
PONCA CITY     MOSUNNY   92  64  39 S9G20     29.85S HX  93
MCALESTER      SUNNY     92  67  43 S5        29.89F HX  95
OKLAHOMA CITY  PTSUNNY   91  62  37 SE14      29.88F HX  91

......IOWA............

CITY           SKY/WX    TMP DP  RH WIND       PRES   REMARKS
DES MOINES     NOT AVBL
QUAD CITIES    SUNNY     90  69  50 SW7       29.88S HX  94

......ILLINOIS........

CITY           SKY/WX    TMP DP  RH WIND       PRES   REMARKS
QUINCY         NOT AVBL
CHICAGO        PTSUNNY   89  70  53 W13       29.88R HX  94




USA.gov is the U.S. government's official web portal to all federal, state and local government web resources and services.